[[{"header":{"parameterUnit":"m.s-1","parameterCategory":1,"la1":30.2991,"la2":30.254,"lo1":-89.0895,"lo2":-89.0444,"dy":0.0017,"dx":0.0017,"nx":28,"ny":28,"refTime":"2026-02-13T03:00:00:Z","depth":0,"parameterNumber":2,"parameterNumberName":"U-component_of_WINDS"},"data":[0,0,0,0,0,0,0,0,0,0,0,0,0,0,0,0,0,0,0,0,0,0,0,0,0,0,0,0,0,0,0,0,0,0,0,0,0,0,0,0,0,0,0,0,0,0,0,0,0,0,0,0,0,0,0,0,0,0,-0.202,-0.202,0,-0.1975,-0.1974,-0.1974,-0.1941,-0.194,-0.194,-0.194,-0.1894,-0.1893,-0.1892,0,0,0,0,0,0,0,0,0,0,0,0,0,-0.2078,-0.2077,-0.202,-0.202,-0.2019,-0.1975,-0.1974,-0.1974,-0.1941,-0.194,-0.194,-0.194,-0.1894,-0.1893,-0.1892,0,0,0,0,0,0,0,0,0,0,0,0,0,-0.2045,-0.2076,-0.202,-0.1997,-0.1995,-0.1975,-0.1974,-0.1974,-0.1941,-0.194,-0.194,-0.194,-0.1895,-0.1893,-0.1892,-0.1891,0,0,-0.1887,-0.1887,0,0,0,0,0,0,0,0,-0.2047,-0.2043,-0.2001,-0.1999,-0.1996,-0.1963,-0.1978,-0.1946,-0.1941,-0.1961,-0.194,-0.1939,-0.1917,-0.1914,-0.1906,-0.1889,-0.1887,-0.1887,-0.1886,-0.1886,-0.1885,0,0,0,0,0,0,0,-0.2049,-0.2044,-0.2002,-0.2001,-0.1997,-0.1989,-0.1984,-0.1972,-0.1942,-0.196,-0.1957,-0.1952,-0.1916,-0.1908,-0.1905,-0.1887,-0.1887,-0.1886,-0.1885,-0.1885,-0.1866,-0.1866,0,0,0,0,0,0,-0.2055,-0.2046,-0.2004,-0.2001,-0.2021,-0.1988,-0.1983,-0.1974,-0.1942,-0.1937,-0.1953,-0.1951,-0.1911,-0.1907,-0.1903,-0.19,-0.1886,-0.1884,-0.1884,-0.1866,-0.1866,-0.1866,0,0,0,0,0,0,-0.2056,-0.2051,-0.2006,-0.2023,-0.2016,-0.1988,-0.1978,-0.1973,-0.1965,-0.1937,-0.1932,-0.195,-0.191,-0.1905,-0.1894,-0.1898,-0.1884,-0.1883,-0.1865,-0.1866,-0.1866,-0.1895,0,0,0,0,0,0,-0.2058,-0.2052,-0.2052,-0.2023,-0.2016,-0.1998,-0.1979,-0.1973,-0.1963,-0.196,-0.1933,-0.1928,-0.1909,-0.1897,-0.1893,-0.1896,-0.1881,-0.1865,-0.1865,-0.1866,-0.1893,-0.1896,-0.1899,0,0,0,0,0,-0.206,-0.2062,-0.2052,-0.2047,-0.2015,-0.1998,-0.1994,-0.1972,-0.1963,-0.1963,-0.1944,-0.1929,-0.1898,-0.1896,-0.1891,-0.1894,-0.1864,-0.1865,-0.1866,-0.1892,-0.1896,-0.1899,0,0,0,0,0,0,-0.2092,-0.2058,-0.2046,-0.2039,-0.2022,-0.1992,-0.1991,-0.1976,-0.1961,-0.1959,-0.1933,-0.1927,-0.1919,-0.1905,-0.1903,-0.1892,-0.1879,-0.1879,-0.1901,-0.1904,-0.1907,-0.191,-0.188,0,0,0,0,0,-0.2098,-0.2088,-0.2058,-0.2054,-0.2046,-0.202,-0.2012,-0.1997,-0.1978,-0.197,-0.1951,-0.1933,-0.1919,-0.1911,-0.1896,-0.1891,-0.1884,-0.1891,-0.1893,-0.1896,-0.1896,-0.1891,-0.1894,-0.1869,-0.1869,-0.1869,0,0,-0.2111,-0.2091,-0.2086,-0.206,-0.2045,-0.2034,-0.2014,-0.2004,-0.1996,-0.1969,-0.1957,-0.1942,-0.192,-0.1912,-0.1907,-0.19,-0.1901,-0.1897,-0.1899,-0.1898,-0.1893,-0.1895,-0.1897,-0.187,-0.187,-0.1869,0,0,-0.2129,-0.2113,-0.2108,-0.2093,-0.2069,-0.2052,-0.2051,-0.2023,-0.2012,-0.2,-0.1979,-0.1969,-0.1946,-0.1931,-0.192,-0.1931,-0.1916,-0.1927,-0.1941,-0.1937,-0.1939,-0.1941,-0.1944,-0.1946,-0.1927,-0.1927,-0.1927,0,-0.2148,-0.2131,-0.2107,-0.2098,-0.2087,-0.2061,-0.2056,-0.2042,-0.2015,-0.2008,-0.2001,-0.1971,-0.1954,-0.1942,-0.1944,-0.1937,-0.1934,-0.193,-0.1941,-0.1942,-0.1943,-0.1946,-0.1948,-0.1929,-0.1929,-0.1929,-0.1928,0,-0.2155,-0.2144,-0.2142,-0.2117,-0.2106,-0.2099,-0.2073,-0.2065,-0.205,-0.2033,-0.202,-0.1999,-0.198,-0.1976,-0.1962,-0.1961,-0.1957,-0.1946,-0.1933,-0.1947,-0.195,-0.1951,-0.1931,-0.1931,-0.193,-0.193,0,0,-0.2194,-0.2154,-0.2154,-0.2142,-0.2114,-0.2104,-0.2095,-0.2076,-0.2069,-0.2051,-0.2043,-0.2023,-0.2012,-0.2,-0.1983,-0.198,-0.1989,-0.1968,-0.1967,-0.1973,-0.1987,-0.1996,-0.1998,-0.1979,-0.1979,-0.1979,-0.1988,0,-0.2207,-0.219,-0.2167,-0.2158,-0.2146,-0.2121,-0.2113,-0.2095,-0.2078,-0.2066,-0.2048,-0.2034,-0.202,-0.2013,-0.2008,-0.1989,-0.1991,-0.1988,-0.197,-0.197,-0.1977,-0.1999,-0.2009,-0.2019,-0.1989,-0.1989,-0.1989,0,-0.2221,-0.2204,-0.2193,-0.2165,-0.216,-0.2153,-0.2133,-0.2122,-0.21,-0.2088,-0.2074,-0.2056,-0.2045,-0.2033,-0.2017,-0.2015,-0.2006,-0.1996,-0.1995,-0.1994,-0.1981,-0.1998,-0.2022,-0.2024,-0.1991,-0.1991,-0.1991,0,-0.225,-0.2225,-0.2215,-0.2205,-0.2172,-0.2168,-0.2154,-0.2132,-0.2121,-0.2103,-0.2096,-0.2078,-0.2068,-0.2054,-0.2031,-0.2024,-0.2017,-0.2003,-0.2007,-0.2007,-0.2007,-0.2008,-0.203,-0.2001,-0.2001,-0.2001,-0.2001,0,-0.2268,-0.2263,-0.2227,-0.2221,-0.2213,-0.2187,-0.218,-0.2164,-0.2144,-0.2134,-0.2111,-0.2102,-0.2072,-0.206,-0.2041,-0.2031,-0.2026,-0.2016,-0.2012,-0.2019,-0.202,-0.2013,-0.2012,-0.2001,-0.2001,-0.2001,-0.2001,0,-0.23,-0.2276,-0.2263,-0.2233,-0.2225,-0.222,-0.2194,-0.2187,-0.2168,-0.2156,-0.2152,-0.2123,-0.2107,-0.2082,-0.2059,-0.2046,-0.2039,-0.2031,-0.2046,-0.2043,-0.2048,-0.2048,-0.2068,-0.2069,-0.2039,-0.2039,-0.2039,0,-0.2314,-0.2308,-0.2277,-0.2268,-0.2255,-0.2242,-0.2231,-0.2204,-0.2193,-0.2168,-0.2163,-0.2145,-0.2129,-0.2104,-0.2082,-0.2063,-0.2055,-0.2063,-0.2052,-0.2059,-0.2055,-0.2056,-0.2055,-0.2066,-0.2066,-0.2067,-0.2067,0,-0.234,-0.2328,-0.2313,-0.2293,-0.2281,-0.2264,-0.2246,-0.2241,-0.221,-0.2199,-0.2182,-0.217,-0.2145,-0.2127,-0.2106,-0.2091,-0.2074,-0.207,-0.207,-0.2078,-0.2087,-0.2082,-0.2053,-0.207,-0.207,-0.207,-0.207,-0.2069,-0.2363,-0.2357,-0.2333,-0.2317,-0.2301,-0.2284,-0.2276,-0.2256,-0.2241,-0.2219,-0.2204,-0.2188,-0.2165,-0.2134,-0.212,-0.2107,-0.2099,-0.2099,-0.2099,-0.21,-0.2102,-0.2088,-0.2102,-0.2102,-0.2102,-0.2102,-0.2102,0,-0.2388,-0.2371,-0.2357,-0.2332,-0.2319,-0.2303,-0.2283,-0.2273,-0.2259,-0.2239,-0.2223,-0.2203,-0.2185,-0.2161,-0.2141,-0.2135,-0.2126,-0.213,-0.2131,-0.2128,-0.211,-0.2112,-0.2137,-0.2137,-0.2137,-0.2137,-0.2137,-0.2137,-0.24,-0.2388,-0.2373,-0.2354,-0.2337,-0.232,-0.231,-0.2294,-0.2278,-0.2257,-0.2242,-0.2225,-0.2203,-0.2181,-0.2164,-0.2157,-0.2151,-0.2158,-0.2148,-0.2132,-0.2129,-0.2126,-0.2128,-0.2156,-0.2156,-0.2167,-0.2167,-0.2168]},{"header":{"parameterUnit":"m.s-1","parameterCategory":1,"la1":30.2991,"la2":30.254,"lo1":-89.0895,"lo2":-89.0444,"dy":0.0017,"dx":0.0017,"nx":28,"ny":28,"refTime":"2026-02-13T03:00:00:Z","depth":0,"parameterNumber":3,"parameterNumberName":"V-component_of_WINDS"},"data":[0,0,0,0,0,0,0,0,0,0,0,0,0,0,0,0,0,0,0,0,0,0,0,0,0,0,0,0,0,0,0,0,0,0,0,0,0,0,0,0,0,0,0,0,0,0,0,0,0,0,0,0,0,0,0,0,0,0,-1.0354,-1.0354,0,-1.0359,-1.0359,-1.0359,-1.034,-1.034,-1.0339,-1.0339,-1.0343,-1.0344,-1.0345,0,0,0,0,0,0,0,0,0,0,0,0,0,-1.0327,-1.0328,-1.0354,-1.0354,-1.0354,-1.0359,-1.0359,-1.0359,-1.0341,-1.034,-1.0339,-1.0339,-1.0343,-1.0344,-1.0345,0,0,0,0,0,0,0,0,0,0,0,0,0,-1.0336,-1.0328,-1.0354,-1.0345,-1.0345,-1.0359,-1.0359,-1.0359,-1.0341,-1.034,-1.0339,-1.0338,-1.0343,-1.0344,-1.0345,-1.0368,0,0,-1.0348,-1.0348,0,0,0,0,0,0,0,0,-1.0336,-1.0337,-1.0347,-1.0346,-1.0345,-1.0348,-1.0352,-1.0362,-1.0341,-1.0342,-1.0339,-1.0338,-1.0346,-1.0346,-1.0349,-1.0368,-1.0368,-1.0348,-1.0349,-1.0349,-1.0349,0,0,0,0,0,0,0,-1.0335,-1.0337,-1.0356,-1.0347,-1.0346,-1.0341,-1.0341,-1.0353,-1.0349,-1.0342,-1.0341,-1.0342,-1.0345,-1.0348,-1.0349,-1.0368,-1.0348,-1.0349,-1.0349,-1.035,-1.0406,-1.0407,0,0,0,0,0,0,-1.0336,-1.0337,-1.0356,-1.0356,-1.0338,-1.0342,-1.0343,-1.0348,-1.0348,-1.0348,-1.0342,-1.0341,-1.0347,-1.0348,-1.0349,-1.0376,-1.0349,-1.035,-1.035,-1.0405,-1.0406,-1.0407,0,0,0,0,0,0,-1.0335,-1.0338,-1.0356,-1.0346,-1.0348,-1.0344,-1.035,-1.0349,-1.0352,-1.0349,-1.0348,-1.0346,-1.0346,-1.0348,-1.0363,-1.0376,-1.035,-1.0351,-1.0404,-1.0406,-1.0407,-1.0431,0,0,0,0,0,0,-1.0335,-1.0338,-1.0347,-1.0346,-1.0349,-1.037,-1.0351,-1.0349,-1.0354,-1.0352,-1.0352,-1.0352,-1.0346,-1.0362,-1.0364,-1.0377,-1.0352,-1.0403,-1.0405,-1.0406,-1.0429,-1.0433,-1.0436,0,0,0,0,0,-1.0334,-1.0353,-1.0347,-1.035,-1.036,-1.0371,-1.0372,-1.0365,-1.0355,-1.0364,-1.0361,-1.0352,-1.0374,-1.0364,-1.0366,-1.0379,-1.0402,-1.0404,-1.0406,-1.0427,-1.0432,-1.0436,0,0,0,0,0,0,-1.0354,-1.0353,-1.0346,-1.0366,-1.0369,-1.0368,-1.0378,-1.0371,-1.0376,-1.0374,-1.0365,-1.0366,-1.0383,-1.0382,-1.0371,-1.0402,-1.0386,-1.0389,-1.0401,-1.0406,-1.0409,-1.0409,-1.0353,0,0,0,0,0,-1.0361,-1.0371,-1.0369,-1.0386,-1.0388,-1.0383,-1.0388,-1.0382,-1.0385,-1.0386,-1.0385,-1.0387,-1.0395,-1.04,-1.0407,-1.0428,-1.0428,-1.0439,-1.0442,-1.0445,-1.0448,-1.0459,-1.0464,-1.0414,-1.0414,-1.0414,0,0,-1.0375,-1.0376,-1.0382,-1.039,-1.0392,-1.0402,-1.0384,-1.0395,-1.0402,-1.0387,-1.0402,-1.0401,-1.0404,-1.0422,-1.043,-1.0423,-1.0461,-1.0448,-1.045,-1.0451,-1.0462,-1.0467,-1.0471,-1.0416,-1.0415,-1.0415,0,0,-1.0406,-1.0407,-1.0422,-1.0424,-1.0427,-1.0423,-1.0427,-1.0427,-1.0426,-1.0441,-1.043,-1.0438,-1.0452,-1.0454,-1.0457,-1.0488,-1.048,-1.0491,-1.051,-1.0522,-1.0525,-1.0529,-1.0541,-1.0545,-1.0493,-1.0493,-1.0493,0,-1.0424,-1.0438,-1.0431,-1.0443,-1.0447,-1.0434,-1.0448,-1.0451,-1.0455,-1.0458,-1.0449,-1.0466,-1.0467,-1.0486,-1.0494,-1.0496,-1.05,-1.0491,-1.0526,-1.0529,-1.0532,-1.0543,-1.0548,-1.0495,-1.0495,-1.0494,-1.0494,0,-1.046,-1.047,-1.0481,-1.0487,-1.0492,-1.0505,-1.05,-1.0506,-1.05,-1.0497,-1.0512,-1.0513,-1.052,-1.0524,-1.0518,-1.0542,-1.0537,-1.0527,-1.0512,-1.0538,-1.0549,-1.0553,-1.0497,-1.0496,-1.0496,-1.0496,0,0,-1.0504,-1.0505,-1.0509,-1.0512,-1.0513,-1.0521,-1.0534,-1.0541,-1.0547,-1.055,-1.0561,-1.0572,-1.0563,-1.0567,-1.0561,-1.0571,-1.0596,-1.0559,-1.0559,-1.0567,-1.0623,-1.0631,-1.0636,-1.059,-1.0591,-1.0592,-1.0623,0,-1.0535,-1.0557,-1.0551,-1.0573,-1.0582,-1.057,-1.0581,-1.0583,-1.0581,-1.0589,-1.0587,-1.0595,-1.0582,-1.0584,-1.0593,-1.0591,-1.0608,-1.0589,-1.06,-1.0601,-1.0601,-1.0642,-1.065,-1.068,-1.0627,-1.0628,-1.0628,0,-1.0574,-1.0579,-1.0603,-1.0603,-1.0607,-1.0617,-1.0623,-1.0631,-1.0633,-1.0631,-1.0635,-1.0627,-1.0639,-1.0623,-1.0641,-1.0628,-1.0632,-1.0632,-1.0633,-1.0634,-1.0617,-1.0645,-1.0689,-1.0694,-1.0635,-1.0634,-1.0634,0,-1.0605,-1.0618,-1.0634,-1.0636,-1.0637,-1.0644,-1.0645,-1.0646,-1.0651,-1.0656,-1.0659,-1.0665,-1.0669,-1.0674,-1.0668,-1.0657,-1.0686,-1.067,-1.0685,-1.0685,-1.0692,-1.0692,-1.0739,-1.0694,-1.0694,-1.0694,-1.0694,0,-1.064,-1.0655,-1.0647,-1.0657,-1.0674,-1.0666,-1.0682,-1.0681,-1.0683,-1.0692,-1.0681,-1.069,-1.0682,-1.069,-1.0685,-1.07,-1.0702,-1.07,-1.0699,-1.0702,-1.0702,-1.0705,-1.0703,-1.0695,-1.0695,-1.0694,-1.0694,0,-1.0677,-1.0673,-1.0689,-1.0689,-1.0689,-1.0701,-1.0701,-1.071,-1.0707,-1.0719,-1.0721,-1.0716,-1.0725,-1.072,-1.0729,-1.0726,-1.0746,-1.0741,-1.0745,-1.0744,-1.076,-1.0759,-1.0811,-1.0817,-1.0768,-1.0768,-1.0769,0,-1.0701,-1.0712,-1.0713,-1.0718,-1.072,-1.0729,-1.0734,-1.0726,-1.0732,-1.0735,-1.0744,-1.0752,-1.0758,-1.0773,-1.0771,-1.0777,-1.0773,-1.0791,-1.0774,-1.0777,-1.0774,-1.0774,-1.0775,-1.0795,-1.0795,-1.0796,-1.0796,0,-1.0743,-1.074,-1.0747,-1.0754,-1.076,-1.0765,-1.0769,-1.0774,-1.0767,-1.0773,-1.0783,-1.0788,-1.0797,-1.0805,-1.0811,-1.0811,-1.0803,-1.0801,-1.0805,-1.0809,-1.0811,-1.081,-1.0755,-1.08,-1.08,-1.08,-1.0799,-1.0799,-1.0774,-1.0784,-1.0786,-1.0794,-1.0797,-1.0801,-1.0809,-1.0808,-1.0815,-1.0823,-1.0817,-1.0829,-1.083,-1.0838,-1.0839,-1.0848,-1.084,-1.0846,-1.0848,-1.0849,-1.0852,-1.0809,-1.0848,-1.0848,-1.0848,-1.0848,-1.0848,0,-1.0816,-1.0817,-1.0825,-1.0831,-1.0838,-1.0829,-1.0833,-1.0839,-1.0849,-1.0852,-1.0858,-1.0869,-1.0877,-1.0875,-1.0882,-1.0889,-1.0886,-1.0892,-1.0891,-1.0892,-1.0857,-1.0854,-1.0895,-1.0894,-1.0894,-1.0894,-1.0894,-1.0894,-1.0839,-1.0855,-1.0852,-1.0869,-1.0869,-1.088,-1.0883,-1.0887,-1.0889,-1.0902,-1.0909,-1.0907,-1.0908,-1.0915,-1.0922,-1.0921,-1.0925,-1.0932,-1.093,-1.0898,-1.0894,-1.089,-1.0886,-1.0933,-1.0933,-1.0964,-1.0964,-1.0964]}]]